Welcome to the New NWS' Forecast!
Most changes are behind the scenes, but click here for differences you might notice.

Regional Weather Roundup (RWR)

Issued by Gray - Portland, ME (GYX)

                            
000
ASUS41 KGYX 180910
RWRGYX
WEATHER ROUNDUP FOR MAINE AND NEW HAMPSHIRE
NATIONAL WEATHER SERVICE GRAY ME
500 AM EDT THU OCT 18 2018

MEZ002-005-006-010-012-015-018-020-021-024-026-027-029-181000-
MAINE
  
CITY           SKY/WX    TMP DP  RH WIND       PRES   REMARKS
PORTLAND       MOCLDY    37  26  64 W13       29.98R                  
SANFORD        FAIR      36  24  62 W15G22    29.99R                  
BAR HARBOR     MOCLDY    36  28  73 W9G18     29.84R                  
WISCASSET      FAIR      35  28  75 W5        29.95R                  
ROCKLAND       FAIR      36  26  67 W13       29.90R                  
FRYEBURG       FAIR      36  20  52 NW12G25   29.97R                  
LEWISTONAUBURN LGT SNOW  32  30  92 NW12      29.97R FOG              
AUGUSTA        FAIR      34  25  69 W9G22     29.93R                  
WATERVILLE     FAIR      33  25  72 NW8       29.89R                  
BANGOR         FAIR      34  28  79 W8        29.85R                  
GREENVILLE       N/A     30  18  60 NW20G29   29.79R WCI  17          
MILLINOCKET    CLOUDY    35  22  58 W16G30    29.80R                  
HOULTON        FAIR      32  27  81 W9        29.71R                  
PRESQUE ISLE   FAIR      30  24  78 W10       29.71R                  
FRENCHVILLE    FAIR      30  23  75 W18G26    29.67R WCI  18          
CARIBOU        FAIR      32  22  66 W10G22    29.68R                  
$$

NHZ002-005-008-009-011-012-014-181000-
NEW HAMPSHIRE
  
CITY           SKY/WX    TMP DP  RH WIND       PRES   REMARKS
PORTSMOUTH     PTCLDY    36  24  62 W12G18    30.01R                  
ROCHESTER      FAIR      34  27  75 VRB6      30.00R                  
NASHUA         MOCLDY    32  30  92 W6        30.07R                  
MANCHESTER     MOCLDY    37  26  64 W16G28    30.04R                  
CONCORD        FAIR      33  24  69 NW10G18   30.04R                  
LACONIA        FLURRIES  33  25  72 W10G20    30.02R                  
PLYMOUTH       MOCLDY    32  28  85 W9G17     30.04R                  
BERLIN         LGT SNOW  30  27  88 VRB5      29.95R FOG              
WHITEFIELD     LGT SNOW  31  26  82 W10       29.99R                  
JAFFREY        FAIR      34  19  54 NW10      30.06R                  
KEENE          FAIR      35  18  49 NW8G17    30.09R                  
LEBANON        MOCLDY    34  22  61 NW9       30.07R                  
MT WASHINGTON  SNOW       9   9 100 NW62G76     N/A  VSB 1/16WCI -21  
$$

VTZ005-007-008-181000-
VERMONT
  
CITY           SKY/WX    TMP DP  RH WIND       PRES   REMARKS
ST JOHNSBURY     N/A     31  27  85 MISG      30.02R                  
MONTPELIER     FLURRIES  30  24  78 NW15      30.09R WCI  19          
BURLINGTON     MOCLDY    35  20  54 NW17G26   30.13R                  
$$

MAZ007-012-024-CTZ003-RIZ002-NYZ038-NYZ072-181000-
SOUTHERN NEW ENGLAND AND NY
  
CITY           SKY/WX    TMP DP  RH WIND       PRES   REMARKS
BOSTON         FAIR      40  25  55 W15G22    30.07R                  
WORCESTER      FAIR      34  20  56 W21G30    30.04R                  
NANTUCKET      FAIR      44  22  41 NW22G35   30.05R                  
PROVIDENCE     FAIR      40  26  57 W9        30.10R                  
HARTFORD       FAIR      38  25  59 NW12      30.14R                  
ALBANY         FAIR      35  20  54 NW10      30.21R                  
NEW YORK CITY  FAIR      46  29  51 NW15      30.22R                  
$$

ANZ081-ANZ082-ANZ150-NHZ014-MEZ023>029-181000-
COASTAL MARINE OBSERVATIONS
  
STATION/POSITION TIME  TEMP    WIND        PRES    WAVE
                       AIR SEA DIR/SP/G            HT/PER
                 (UTC) (F)     (DEG/KT/KT) (MB)    (FT/S)
MOUNT DESERT ROC 0900   41     290/ 39/ 44 1010.1R
MATINICUS ROCK   0800   42     300/ 34/ 37 1010.2R
ISLE OF SHOALS   0800   39     280/ 23/ 26 1014.7R
$$

.............KEY..............
   WCI - WIND CHILL
   TC  - TEMPERATURE IN CELSIUS
   VSB - VISIBILITY IN MILES
   HX  - HEAT INDEX
   FAIR- INDICATES FEW OR NO CLOUDS BELOW 12,000 FT, WITH NO 
         SIGNIFICANT WEATHER AND/OR OBSTRUCTIONS TO VISIBILITY.